This demonstration page uses our WeatherBlox Daily Observations layout. Learn more.

Left ArrowRight Arrow

Hourly Observations for July 24, 2017

Temp ( °F °C ) Dew Point ( °F °C ) Humidity (%) Winds ( mph kmh ) Pressure ( in mb ) Visibility ( mi km ) Precip ( " mm )
12:53 am 00:53 Clear 73 22.8 60 15.6 64 64 E 8 13 29.98 1015 10 16 0.00 0.00
1:53 am 01:53 Clear 73 22.8 58 14.4 59 59 E 9 15 29.97 1015 10 16 0.00 0.00
2:53 am 02:53 Clear 71 21.7 59 15 66 66 ESE 8 13 29.97 1015 10 16 0.00 0.00
3:53 am 03:53 Clear 69 20.6 60 15.6 73 73 SE 7 11 29.97 1015 10 16 0.00 0.00
4:53 am 04:53 Clear 69 20.6 60 15.6 73 73 ESE 8 13 29.97 1015 10 16 0.00 0.00
5:53 am 05:53 Clear 68 20 60 15.6 76 76 SE 9 15 29.98 1015 10 16 0.00 0.00
6:53 am 06:53 Mostly Sunny 68 20 60 15.6 76 76 SE 14 22 29.98 1015 10 16 0.00 0.00
7:53 am 07:53 Sunny 69 20.6 61 16.1 76 76 SE 12 19 30.00 1016 10 16 0.00 0.00
8:53 am 08:53 Sunny 72 22.2 61 16.1 68 68 SSE 14 22 29.99 1016 10 16 0.00 0.00
9:53 am 09:53 Sunny 75 23.9 63 17.2 66 66 S 12 19 30.00 1016 10 16 0.00 0.00
10:53 am 10:53 Sunny 79 26.1 65 18.3 62 62 SSE 14 22 29.97 1015 10 16 0.00 0.00
11:53 am 11:53 Sunny 82 27.8 66 18.9 58 58 SSE 12 19 29.96 1015 10 16 0.00 0.00
12:53 pm 12:53 Sunny 86 30 69 20.6 57 57 SSE 12 19 29.95 1014 10 16 0.00 0.00
1:53 pm 13:53 Sunny 87 30.6 69 20.6 55 55 S 12 19 29.93 1014 10 16 0.00 0.00
2:53 pm 14:53 Sunny 89 31.7 67 19.4 48 48 S 12 19 29.92 1013 10 16 0.00 0.00
3:53 pm 15:53 Sunny 91 32.8 69 20.6 49 49 S 12 19 29.91 1013 10 16 0.00 0.00
4:53 pm 16:53 Sunny 91 32.8 70 21.1 50 50 S 14 22 29.89 1012 10 16 0.00 0.00
5:53 pm 17:53 Sunny 90 32.2 70 21.1 52 52 SSE 14 22 29.88 1012 10 16 0.00 0.00
6:53 pm 18:53 Sunny 88 31.1 70 21.1 55 55 SE 14 22 29.87 1012 10 16 0.00 0.00
7:53 pm 19:53 Sunny 87 30.6 69 20.6 55 55 SE 12 19 29.87 1012 10 16 0.00 0.00
8:53 pm 20:53 Sunny 83 28.3 70 21.1 65 65 SE 9 15 29.88 1012 10 16 0.00 0.00
9:53 pm 21:53 Clear 81 27.2 71 21.7 72 72 SE 12 19 29.91 1013 10 16 0.00 0.00
10:53 pm 22:53 Clear 80 26.7 70 21.1 71 71 SSE 12 19 29.93 1013 10 16 0.00 0.00
11:53 pm 23:53 Clear 79 26.1 70 21.1 74 74 SSE 10 17 29.93 1014 10 16 0.00 0.00

Powered by AerisWeather